www.pogodaiklimat.ru

Погода и климат >> Архив погоды >> Катар >> Духан


ПОГОДА в Духане

  • Прогноз погоды в Духане
  • Монитор погоды в Духане

АРХИВ ПОГОДЫ в Духане

Время (UTC), дата Ветер
(напр.,м/с)
 
Видим.   Явления Облачность Т
(С)
Тd
(С)
f
(%)
Тe
(С)
Тes
(С)
Комфортность P
(гПа)
Po
(гПа)
Тmin
(С)
Tmax
(С)
R
(мм)
R24
(мм)
S
(см)
04 13.09 С 10 20 км н/о +32.7 +25.1 64 +46 +46 опасность
перегрева
1005.6 1005.4
05 13.09 СЗ 7 20 км н/о +32.8 +25.4 65 +47 +47 опасность
перегрева
1006.2 1006.0
06 13.09 СЗ 12 20 км н/о +32.6 +25.0 64 +46 +46 опасность
перегрева
1006.6 1006.4 +32.1
07 13.09 СЗ 12 20 км н/о +33.0 +24.9 63 +47 +47 опасность
перегрева
1006.5 1006.3
08 13.09 С 11 20 км н/о +33.5 +24.8 60 +47 +47 опасность
перегрева
1005.9 1005.7
09 13.09 С 12 20 км н/о +33.9 +25.1 60 +48 +48 опасность
перегрева
1005.4 1005.2
10 13.09 С 11 20 км н/о +34.0 +24.9 59 +47 +47 опасность
перегрева
1004.8 1004.6
11 13.09 С 9 19 км н/о +34.6 +25.0 58 +48 +48 опасность
перегрева
1004.2 1004.0
12 13.09 С 10 20 км н/о +34.5 +26.0 61 +50 +50 опасность
перегрева
1003.9 1003.7
13 13.09 С 10 20 км н/о +35.0 +24.2 54 +47 +47 опасность
перегрева
1003.8 1003.6
14 13.09 С 11 20 км н/о +36.3 +19.0 36 +41 +41 опасность
перегрева
1003.9 1003.7
15 13.09 СВ 9 20 км н/о +34.9 +19.0 39 +40 +40 очень
душно
1004.2 1004.0
16 13.09 С 6 20 км н/о +33.3 +22.8 54 +43 +43 опасность
перегрева
1004.9 1004.7
17 13.09 СВ 4 15 км н/о +32.4 +22.3 55 +41 +41 опасность
перегрева
1005.1 1004.9
18 13.09 В 3 20 км н/о +30.0 +21.3 60 +38 +38 очень
душно
1005.9 1005.7 +36.9
19 13.09 ЮВ 4 20 км н/о +28.6 +22.3 69 +37 +37 очень
душно
1005.9 1005.7
20 13.09 штиль 0 20 км н/о +28.4 +22.7 71 +38 +38 очень
душно
1005.6 1005.4
21 13.09 Ю 4 20 км н/о +26.7 +21.3 72 +34 +34 очень
душно
1005.2 1005.0
22 13.09 ЮЗ 4 20 км н/о +28.2 +23.3 75 +38 +38 очень
душно
1004.7 1004.5
23 13.09 Ю 3 20 км н/о +27.2 +23.0 78 +36 +36 очень
душно
1004.3 1004.1
00 14.09 З 1 20 км н/о +27.2 +24.1 83 +38 +38 очень
душно
1004.4 1004.2
01 14.09 З 8 20 км н/о +31.5 +26.3 74 +48 +48 опасность
перегрева
1004.7 1004.5
02 14.09 З 9 20 км н/о +31.4 +23.1 61 +42 +42 опасность
перегрева
1004.9 1004.7
03 14.09 З 9 20 км н/о +31.3 +22.0 58 +40 +40 очень
душно
1005.3 1005.1
04 14.09 З 10 20 км н/о +31.8 +20.1 50 +38 +38 очень
душно
1005.8 1005.6
05 14.09 З 9 20 км н/о +32.4 +19.8 47 +38 +38 очень
душно
1006.4 1006.2
06 14.09 СЗ 10 20 км н/о +33.5 +20.7 47 +40 +40 очень
душно
1006.7 1006.5 +26.2
07 14.09 СЗ 10 20 км н/о +34.4 +21.0 46 +42 +42 опасность
перегрева
1006.5 1006.3
08 14.09 СЗ 11 20 км н/о +34.8 +21.9 47 +43 +43 опасность
перегрева
1005.9 1005.7
09 14.09 С 11 20 км н/о +35.3 +22.7 48 +45 +45 опасность
перегрева
1005.4 1005.2
10 14.09 СЗ 11 20 км н/о +35.4 +22.4 47 +44 +44 опасность
перегрева
1004.8 1004.6
11 14.09 СЗ 11 20 км н/о +35.3 +23.3 50 +46 +46 опасность
перегрева
1004.2 1004.0
12 14.09 С 8 20 км н/о +35.2 +25.4 57 +50 +50 опасность
перегрева
1004.0 1003.8
13 14.09 С 11 20 км н/о +36.1 +19.8 39 +42 +42 опасность
перегрева
1004.1 1003.9
14 14.09 С 10 20 км н/о +35.6 +18.2 36 +40 +40 очень
душно
1004.2 1004.0
15 14.09 СВ 9 20 км н/о +34.9 +19.9 41 +41 +41 опасность
перегрева
1004.4 1004.2
16 14.09 СВ 5 20 км н/о +32.8 +22.8 56 +43 +43 опасность
перегрева
1004.5 1004.3
17 14.09 В 3 20 км н/о +32.1 +22.3 56 +41 +41 опасность
перегрева
1005.1 1004.9
18 14.09 С 4 20 км н/о +31.5 +24.6 67 +44 +44 опасность
перегрева
1005.7 1005.5 +36.7
19 14.09 В 5 20 км н/о +29.4 +23.5 71 +40 +40 очень
душно
1005.7 1005.5
20 14.09 В 3 18 км н/о +28.4 +23.6 75 +39 +39 очень
душно
1005.5 1005.3
21 14.09 ЮВ 4 17 км н/о +26.6 +22.6 79 +35 +35 очень
душно
1005.3 1005.1
22 14.09 штиль 0 15 км н/о +27.2 +23.8 82 +37 +37 очень
душно
1004.9 1004.7
23 14.09 Ю 4 13 км н/о +25.9 +22.8 83 +34 +34 очень
душно
1004.5 1004.3
03 15.09 штиль 0 18 км н/о +26.7 +22.5 78 +35 +35 очень
душно
1005.5 1005.3
04 15.09 З 4 20 км н/о +31.1 +24.1 66 +43 +43 опасность
перегрева
1006.1 1005.9
05 15.09 З 5 20 км н/о +31.7 +22.0 56 +40 +40 очень
душно
1006.4 1006.2
06 15.09 З 3 20 км н/о +32.9 +22.4 54 +42 +42 опасность
перегрева
1006.9 1006.7 +25.0
07 15.09 З 4 20 км н/о +33.1 +22.8 55 +43 +43 опасность
перегрева
1007.0 1006.8
08 15.09 СЗ 5 20 км н/о +34.0 +24.5 58 +47 +47 опасность
перегрева
1006.4 1006.2
09 15.09 СЗ 8 20 км н/о +33.9 +25.8 63 +49 +49 опасность
перегрева
1005.9 1005.7
10 15.09 СЗ 8 20 км н/о +34.8 +26.9 64 +53 +53 опасность
перегрева
1005.4 1005.2
11 15.09 С 10 20 км н/о +34.5 +26.3 62 +51 +51 опасность
перегрева
1004.8 1004.6
12 15.09 С 13 20 км н/о +34.6 +25.8 60 +50 +50 опасность
перегрева
1004.4 1004.2
13 15.09 С 13 20 км н/о +35.2 +24.9 55 +48 +48 опасность
перегрева
1004.4 1004.2
14 15.09 С 11 20 км н/о +35.3 +24.5 54 +48 +48 опасность
перегрева
1004.7 1004.5
15 15.09 С 10 20 км н/о +34.7 +22.4 49 +44 +44 опасность
перегрева
1005.1 1004.9
16 15.09 СВ 6 20 км н/о +34.1 +26.2 64 +51 +51 опасность
перегрева
1005.8 1005.6
17 15.09 В 4 20 км н/о +33.3 +21.8 51 +42 +42 опасность
перегрева
1006.5 1006.3
18 15.09 В 5 20 км н/о +32.4 +23.4 59 +43 +43 опасность
перегрева
1006.7 1006.5 +35.9
19 15.09 СВ 3 20 км н/о +31.8 +24.7 66 +45 +45 опасность
перегрева
1006.8 1006.6
20 15.09 СВ 2 20 км н/о +31.7 +26.3 73 +48 +48 опасность
перегрева
1006.5 1006.3
21 15.09 В 1 18 км н/о +28.4 +22.3 70 +37 +37 очень
душно
1006.3 1006.1
22 15.09 ЮВ 3 16 км н/о +27.8 +23.5 77 +38 +38 очень
душно
1005.9 1005.7
23 15.09 В 1 15 км н/о +27.5 +23.3 78 +37 +37 очень
душно
1005.5 1005.3
00 16.09 СЗ 5 20 км н/о +30.2 +27.4 85 +48 +48 опасность
перегрева
1005.3 1005.1
01 16.09 СЗ 3 14 км н/о +31.4 +28.4 84 +53 +53 опасность
перегрева
1005.6 1005.4
02 16.09 СЗ 4 11 км н/о +31.2 +28.8 87 +54 +54 опасность
перегрева
1006.0 1005.8
03 16.09 СЗ 4 8000 м н/о +30.9 +29.2 91 +55 +55 опасность
перегрева
1006.3 1006.1
04 16.09 СЗ 7 9000 м н/о +31.1 +29.0 89 +54 +54 опасность
перегрева
1006.7 1006.5
05 16.09 СЗ 7 17 км н/о +31.2 +28.3 85 +52 +52 опасность
перегрева
1007.0 1006.8
06 16.09 СЗ 9 20 км н/о +33.2 +26.8 69 +51 +51 опасность
перегрева
1007.3 1007.1 +26.9
07 16.09 С 5 20 км н/о +33.5 +27.3 70 +52 +52 опасность
перегрева
1007.6 1007.4
08 16.09 С 10 16 км н/о +33.5 +29.0 77 +57 +57 опасность
перегрева
1007.1 1006.9
09 16.09 С 14 15 км н/о +33.8 +29.4 78 +59 +59 опасность
перегрева
1006.4 1006.2
10 16.09 С 15 15 км н/о +33.9 +28.4 73 +56 +56 опасность
перегрева
1005.9 1005.7
11 16.09 С 14 15 км н/о +34.2 +27.8 69 +54 +54 опасность
перегрева
1005.2 1005.0
12 16.09 С 12 20 км н/о +35.0 +23.7 52 +46 +46 опасность
перегрева
1004.9 1004.7
13 16.09 С 11 20 км н/о +35.4 +25.0 55 +49 +49 опасность
перегрева
1004.7 1004.5
14 16.09 СВ 9 20 км н/о +36.7 +17.9 33 +40 +40 очень
душно
1005.0 1004.8
15 16.09 СВ 7 20 км н/о +35.6 +14.4 28 +37 +37 душно 1005.2 1005.0
16 16.09 СВ 5 20 км н/о +34.2 +22.3 50 +43 +43 опасность
перегрева
1005.7 1005.5
17 16.09 СВ 2 20 км н/о +33.1 +25.5 64 +48 +48 опасность
перегрева
1006.1 1005.9
18 16.09 СВ 2 20 км н/о +32.2 +26.2 71 +48 +48 опасность
перегрева
1006.3 1006.1 +37.2
19 16.09 штиль 0 20 км н/о +30.6 +25.4 74 +45 +45 опасность
перегрева
1006.1 1005.9
20 16.09 штиль 0 20 км н/о +29.7 +25.1 76 +43 +43 опасность
перегрева
1005.5 1005.3
21 16.09 ЮВ 3 20 км н/о +29.8 +25.4 77 +44 +44 опасность
перегрева
1005.0 1004.8
22 16.09 Ю 3 17 км н/о +31.3 +26.2 74 +47 +47 опасность
перегрева
1004.5 1004.3
23 16.09 В 5 15 км н/о +26.7 +21.1 71 +34 +34 очень
душно
1004.2 1004.0
00 17.09 Ю 2 16 км н/о +27.8 +21.4 68 +35 +35 очень
душно
1004.0 1003.8
01 17.09 штиль 0 17 км н/о +27.1 +20.9 69 +34 +34 очень
душно
1004.2 1004.0
02 17.09 В 5 12 км н/о +25.7 +20.1 71 +32 +32 очень
душно
1005.3 1005.1
03 17.09 В 5 12 км н/о +25.6 +20.1 72 +32 +32 очень
душно
1006.0 1005.8
04 17.09 ЮВ 8 15 км н/о +29.1 +21.1 62 +37 +37 очень
душно
1006.7 1006.5
05 17.09 В 6 20 км н/о +33.0 +19.2 44 +38 +38 очень
душно
1007.4 1007.2
06 17.09 ЮЗ 6 18 км н/о +34.1 +22.6 51 +43 +43 опасность
перегрева
1007.3 1007.1 +25.0
07 17.09 З 5 18 км н/о +34.0 +23.5 54 +45 +45 опасность
перегрева
1006.8 1006.6
08 17.09 З 5 20 км н/о +34.7 +23.8 53 +46 +46 опасность
перегрева
1006.2 1006.0
09 17.09 СЗ 6 17 км н/о +35.0 +25.1 57 +49 +49 опасность
перегрева
1005.5 1005.3
10 17.09 СЗ 7 20 км н/о +35.3 +25.9 58 +50 +50 опасность
перегрева
1004.7 1004.5
11 17.09 С 11 18 км н/о +34.5 +26.2 62 +51 +51 опасность
перегрева
1003.9 1003.7
12 17.09 С 10 20 км н/о +35.1 +25.1 56 +49 +49 опасность
перегрева
1003.6 1003.4
13 17.09 С 7 20 км н/о +35.0 +24.5 55 +48 +48 опасность
перегрева
1003.5 1003.3
14 17.09 С 7 15 км н/о +35.2 +22.0 46 +43 +43 опасность
перегрева
1003.4 1003.2
15 17.09 С 2 12 км н/о +34.0 +25.4 61 +48 +48 опасность
перегрева
1003.5 1003.3
16 17.09 С 2 12 км н/о +33.3 +26.6 68 +50 +50 опасность
перегрева
1003.9 1003.7
17 17.09 СВ 3 17 км н/о +31.3 +21.1 55 +39 +39 очень
душно
1004.6 1004.4
18 17.09 В 7 17 км н/о +30.6 +20.4 55 +38 +38 очень
душно
1004.9 1004.7 +35.3
19 17.09 ЮВ 6 20 км н/о +29.8 +18.1 49 +34 +34 очень
душно
1004.6 1004.4
20 17.09 Ю 3 20 км н/о +31.0 +21.0 55 +38 +38 очень
душно
1004.3 1004.1
21 17.09 ЮВ 3 20 км н/о +28.4 +18.4 55 +33 +33 очень
душно
1004.1 1003.9
22 17.09 В 5 20 км н/о +27.6 +18.7 58 +33 +33 очень
душно
1003.9 1003.7
23 17.09 В 6 20 км н/о +27.4 +18.1 57 +32 +32 очень
душно
1003.8 1003.6
00 18.09 ЮВ 7 20 км н/о +27.2 +19.6 63 +33 +33 очень
душно
1003.8 1003.6
01 18.09 В 6 20 км н/о +26.6 +20.9 71 +33 +33 очень
душно
1004.2 1004.0
03 18.09 ЮВ 4 14 км н/о +25.9 +21.3 76 +33 +33 очень
душно
1005.6 1005.4
04 18.09 Ю 3 12 км н/о +29.2 +24.9 78 +42 +42 опасность
перегрева
1006.3 1006.1
05 18.09 ЮЗ 5 13 км н/о +32.5 +26.8 72 +50 +50 опасность
перегрева
1006.8 1006.6
06 18.09 З 6 18 км н/о +33.1 +25.6 65 +48 +48 опасность
перегрева
1006.9 1006.7 +25.6
07 18.09 З 5 20 км н/о +33.8 +23.2 54 +44 +44 опасность
перегрева
1007.1 1006.9
09 18.09 СЗ 4 15 км н/о +35.5 +24.1 52 +47 +47 опасность
перегрева
1006.0 1005.8
10 18.09 С 6 17 км н/о +35.7 +21.7 44 +44 +44 опасность
перегрева
1005.3 1005.1
11 18.09 С 6 15 км н/о +35.4 +23.3 50 +46 +46 опасность
перегрева
1004.8 1004.6
12 18.09 С 5 14 км н/о +35.8 +23.9 50 +47 +47 опасность
перегрева
1004.4 1004.2
13 18.09 С 6 17 км н/о +35.7 +23.1 48 +46 +46 опасность
перегрева
1004.4 1004.2
14 18.09 С 4 17 км н/о +36.7 +19.5 37 +42 +42 опасность
перегрева
1004.4 1004.2
15 18.09 С 3 18 км н/о +35.5 +19.1 38 +40 +40 очень
душно
1004.7 1004.5
16 18.09 В 4 19 км н/о +33.1 +15.5 35 +35 +35 душно 1005.2 1005.0
17 18.09 В 8 20 км н/о +32.9 +17.0 39 +36 +36 очень
душно
1005.8 1005.6
18 18.09 В 5 20 км н/о +30.7 +17.9 46 +35 +35 очень
душно
1006.0 1005.8 +36.9
19 18.09 ЮВ 4 17 км н/о +29.9 +18.8 51 +35 +35 очень
душно
1005.8 1005.6
20 18.09 В 3 15 км н/о +28.6 +20.7 62 +35 +35 очень
душно
1005.4 1005.2
21 18.09 В 3 13 км н/о +28.3 +21.8 68 +36 +36 очень
душно
1005.2 1005.0
22 18.09 СВ 2 14 км н/о +29.4 +24.0 73 +41 +41 опасность
перегрева
1005.4 1005.2
23 18.09 ЮВ 1 10 км н/о +28.3 +23.8 77 +39 +39 очень
душно
1005.1 1004.9
00 19.09 В 3 8000 м н/о +25.3 +21.8 81 +33 +33 очень
душно
1004.9 1004.7
01 19.09 В 2 7000 м н/о +24.9 +21.5 81 +32 +32 очень
душно
1005.2 1005.0
02 19.09 В 3 н/о н/о +24.8 +22.1 85 +32 +32 очень
душно
1005.7 1005.5
03 19.09 С 2 7000 м н/о +26.6 +24.4 88 +37 +37 очень
душно
1006.4 1006.2
04 19.09 В 4 9000 м н/о +28.5 +24.6 79 +40 +40 очень
душно
1007.8 1007.6
05 19.09 ЮВ 3 13 км н/о +32.1 +26.4 72 +49 +49 опасность
перегрева
1008.0 1007.8
06 19.09 ЮЗ 4 12 км н/о +32.9 +25.3 64 +47 +47 опасность
перегрева
1008.1 1007.9 +24.4
07 19.09 ЮЗ 5 14 км н/о +33.9 +24.9 59 +47 +47 опасность
перегрева
1008.2 1008.0
08 19.09 З 6 13 км н/о +33.9 +25.1 60 +48 +48 опасность
перегрева
1007.5 1007.3
09 19.09 З 6 14 км н/о +34.8 +24.2 54 +47 +47 опасность
перегрева
1006.8 1006.6
10 19.09 СЗ 7 15 км н/о +35.6 +22.7 47 +45 +45 опасность
перегрева
1006.1 1005.9
11 19.09 СЗ 7 11 км н/о +35.3 +24.8 55 +49 +49 опасность
перегрева
1005.6 1005.4
12 19.09 СЗ 8 10 км н/о +35.0 +25.9 59 +50 +50 опасность
перегрева
1005.2 1005.0
13 19.09 С 9 12 км н/о +35.1 +24.6 55 +48 +48 опасность
перегрева
1005.2 1005.0
14 19.09 С 7 14 км н/о +35.4 +23.3 50 +46 +46 опасность
перегрева
1005.2 1005.0
15 19.09 СВ 4 9000 м н/о +35.7 +20.3 41 +42 +42 опасность
перегрева
1005.4 1005.2
16 19.09 СВ 3 14 км н/о +34.8 +19.9 42 +41 +41 опасность
перегрева
1005.9 1005.7
17 19.09 СВ 4 14 км н/о +34.7 +19.8 42 +41 +41 опасность
перегрева
1006.2 1006.0
18 19.09 С 5 15 км н/о +33.5 +23.4 56 +44 +44 опасность
перегрева
1006.5 1006.3 +36.0
19 19.09 В 5 17 км н/о +32.3 +22.1 55 +41 +41 опасность
перегрева
1006.2 1006.0
20 19.09 ЮВ 3 15 км н/о +31.4 +22.9 61 +42 +42 опасность
перегрева
1006.2 1006.0
21 19.09 СВ 3 13 км н/о +31.0 +24.0 66 +43 +43 опасность
перегрева
1005.9 1005.7
22 19.09 штиль 0 10 км н/о +29.1 +22.8 69 +39 +39 очень
душно
1005.6 1005.4
23 19.09 штиль 0 10 км н/о +28.3 +22.4 70 +37 +37 очень
душно
1005.3 1005.1
00 20.09 С 3 8000 м н/о +29.4 +25.5 80 +43 +43 опасность
перегрева
1005.4 1005.2
01 20.09 СЗ 9 7000 м н/о +31.9 +28.8 84 +55 +55 опасность
перегрева
1005.6 1005.4
02 20.09 СЗ 11 н/о н/о +31.8 +28.8 84 +54 +54 опасность
перегрева
1006.1 1005.9

 

Местоположение метеостанции Духан (Катар): широта 25.40 долгота 50.75 высота над уровнем моря 5 м.

В архиве по умолчанию представлена погода в Духане за последнюю неделю. Архивные данные за месяц целиком и за предыдущие месяцы, начиная с января 2011 года, Вы можете получить, выбрав интересующий диапазон дат из раскрывающегося списка и нажав кнопку "Ввод!".


*Определитесь, кто Вы:
робот инопланетянин человек

Внимание! Время в таблицах - всемирное. Для получения местного времени необходимо прибавить поправку, которая равна 4 ч.

Смотрите также архив погоды в соседних городах и на ближайших метеорологических станциях:

Погода в Абу Самба (Катар) (73 км)
Погода в Дохе (Катар) (84 км)
Погода в Аэропорту Хамад (Катар) (88 км)
Погода в Доха порту (Катар) (91 км)
Погода в Бахрейне (Бахрейн) (97 км)
Погода в Дахране (Саудовская Аравия) (113 км)
Погода в Эль-Хуфуфе (Саудовская Аравия) (128 км)
Погода в Эд-Даммаме (Саудовская Аравия) (149 км)
Погода в Бендер-Дейере (Иран) (295 км)
Погода на Острове Киш (Иран) (345 км)

Пояснения к столбцам:

Ветер - указаны скорость ветра в м/с - средняя за 10 мин, порывы в срок и между сроками (в фигурных скобках) и направление, откуда дует ветер: С - северный, СВ - северо-восточный, В - восточный, ЮВ - юго-восточный, Ю - южный, ЮЗ - юго-западный, З - западный, СЗ - северо-западный.
Видимость - горизонтальная дальность видимости в метрах или километрах. При видимости от 1 до 10 км при отсутствии осадков обычно наблюдается дымка, при ухудшении видимости до 1 км и менее - туман. В сухую погоду видимость может ухудшаться дымом, пылью или мглою.
Явления - указаны атмосферные явления, наблюдавшиеся в срок или в последний час перед сроком; фигурными скобками обозначены явления, наблюдавшиеся между сроками (за 1-3 часа до срока); квадратными скобками обозначены град или гололедные отложения с указанием их диаметра в мм.
Облачность - указаны через наклонную черту общая и нижняя облачность в баллах и высота нижней границы облаков в метрах; квадратными скобками обозначены формы облаков: Ci - перистые, Cs - перисто-слоистые, Cc - перисто-кучевые, Ac - высококучевые, As - высокослоистые, Sc - слоисто-кучевые, Ns - слоисто-дождевые, Cu - кучевые, Cb - кучево-дождевые. Подробнее классификацию облаков см. в Атласе облаков (PDF).
T - Температура воздуха - температура, измеренная на высоте 2 м над землей.
Td - Температура точки росы - температура, при понижении до которой содержащийся в воздухе водяной пар достигнет насыщения.
f - Относительная влажность воздуха - влажноcть воздуха, измеренная на высоте 2 м над землей.
Te - Эффективная температура - температура, которую ощущает одетый по сезону человек в тени. Характеристика душности погоды. При расчете учитывается влияние влажности воздуха и скорости ветра на теплоощущения человека.
Tes - Эффективная температура на солнце - температура, которую ощущает человек, с поправкой на солнечный нагрев. Характеристика знойности погоды. Зависит от высоты солнца над горизонтом, облачности и скорости ветра. Ночью, в пасмурную погоду, а также при ветре 12 м/с и более поправка равна нулю.
P - Атмосферное давление - приведенное к уровню моря атмосферное давление.
Po - Атмосферное давление - измеренное на уровне метеостанции атмосферное давление.
Tmin - Минимальная температура - минимум температуры воздуха на высоте 2 м над землей.
Tmax - Максимальная температура - максимум температуры воздуха на высоте 2 м над землей.
R - Количество осадков - Количество выпавших осадков за период времени, мм. При наведении курсора мыши на число - период времени, за который выпало указанное количество осадков.
R24 - Количество осадков - Количество выпавших осадков за 24 часа, мм.
S - Снежный покров - Высота снежного покрова, см. При наведении курсора мыши на число - состояние снежного покрова и степень покрытия местности в баллах.